Regional Weather Roundup
Issued by NWS Grand Forks, ND

Home | Current Version | Previous Version | Graphics & Text | Print | Product List | Glossary On
Versions: 1 2 3 4 5 6 7 8 9 10 11 12 13 14 15 16 17 18 19 20 21 22 23 24 25 26 27 28 29 30 31 32 33 34 35 36 37 38 39 40 41 42 43 44 45 46 47 48 49 50
228
ASUS43 KFGF 300531
RWRFGF
PRAIRIE TO PINES  WEATHER ROUNDUP
NATIONAL WEATHER SERVICE EASTERN NORTH DAKOTA/GRAND FORKS ND
1200 AM CDT TUE MAY 30 2017

 **SATELLITE DATA USED TO AUGMENT SKY COVER AT AUTOMATED STATIONS**
 *****  WEATHER ACROSS EASTERN NORTH DAKOTA  *****

CITY           SKY/WX    TMP DP  RH WIND       PRES   REMARKS
GRAND FORKS    CLOUDY    50  43  77 NW16      29.91S
GRAND FRKS AFB CLOUDY    48  42  80 N15       29.92S
DEVILS LAKE    CLOUDY    48  41  76 NW15      29.96S
FARGO          CLOUDY    51  44  77 N14       29.92R
WAHPETON ARPT  CLOUDY    52  41  66 NW10      29.93S
$$

 ***** WEATHER ACROSS CENTRAL AND WESTERN NORTH DAKOTA  *****

CITY           SKY/WX    TMP DP  RH WIND       PRES   REMARKS
BISMARCK       FAIR      52  39  61 N6        30.02R
MINOT          FAIR      49  38  65 W8        30.01S
JAMESTOWN      MOCLDY    47  41  80 NW5       29.96S
MINOT AFB      FAIR      41  36  83 W5        30.01R
GARRISON         N/A     42  36  79 N6        30.02R
WILLISTON      FAIR      50  30  46 NW13      30.06S
DICKINSON      FAIR      40  29  64 W7        30.04S
HETTINGER      FAIR      40  30  67 CALM      30.08S
$$

 *****  OTHER AIRPORT OBSERVATIONS IN OUR AREA  *****

CITY           SKY/WX    TMP DP  RH WIND       PRES   REMARKS
WALHALLA       NOT AVBL
GRAFTON AIRPOR   N/A     46  45  93 NW14      29.93S
VALLEY CITY AR CLOUDY    52  45  76 NW9       29.96S
CANDO          NOT AVBL
CAVALIER APRT  CLOUDY    46  41  81 NW16      29.91S
GWINNER        CLOUDY    54  43  66 MISG      29.95S
SHEYENNE NWR     N/A     54  44  68 N7        29.95
ROLLA          MOCLDY    45  45 100 N12       29.97S
 ***** THE ABOVE OBSERVATIONS ARE NON NWS ARE NOT QUALITY
       CONTROLLED AND MAY MIS-REPORT RAIN FOR SNOW...
$$

  *****  WEATHER ACROSS NORTHERN MINNESOTA  *****

CITY           SKY/WX    TMP DP  RH WIND       PRES   REMARKS
FLAG ISLAND    CLOUDY    45  43  93 NW16G25   29.80S
WARROAD        DRIZZLE   43  39  87 W9        29.84S
ROSEAU         DRIZZLE   45  39  81 NW10      29.85S
HALLOCK        CLOUDY    45  43  93 N9        29.89S
THF RVR FALLS  CLOUDY    44  41  89 NW12      29.89S
BAUDETTE       LGT RAIN  44  43  96 W13       29.80S FOG
WASKISH        CLOUDY    45  39  81 NW14      29.82S
CROOKSTON      CLOUDY    45  45 100 N15       29.91S FOG
STEPHEN NDAWN    N/A     45  45 100 NW13        N/A
GREENBUSH NDAW   N/A     45  43  93 N13         N/A
$$
  *****  WEATHER ACROSS CENTRAL AND WEST MINNESOTA  *****

CITY           SKY/WX    TMP DP  RH WIND       PRES   REMARKS
FOSSTON        CLOUDY    43  39  87 NW9       29.88S FOG
BEMIDJI        DRIZZLE   42  41  97 W12       29.84S
PARK RAPIDS    CLOUDY    47  41  80 NW16      29.85S
ELBOW LAKE     CLOUDY    51  46  82 W12       29.92S
WADENA         CLOUDY    48  43  81 NW14      29.87S
DETROIT LAKES  CLOUDY    46  43  87 NW13      29.90S
MOORHEAD       CLOUDY    50  45  81 N10       29.93S
FERGUS FALLS   CLOUDY    50  45  81 NW12      29.90F
MORRIS MN      CLOUDY    54  46  76 NW7       29.91S
STAPLES        CLOUDY    48  41  76 NW13G22   29.86S
$$
  *****  WEATHER ELSEWHERE ACROSS MINNESOTA  *****

CITY           SKY/WX    TMP DP  RH WIND       PRES   REMARKS
DULUTH         CLOUDY    52  44  74 W12       29.75F
INTRNTL FALLS  CLOUDY    46  39  76 W8        29.77S
ELY            CLOUDY    46  39  76 NW6       29.74S
CLOQUET        CLOUDY    52  43  71 W14G21    29.78S
WHEATON        CLOUDY    54  45  71 NW7       29.95S
BRAINERD       CLOUDY    50  43  77 W12       29.84S
HIBBING        CLOUDY    47  40  76 NW15      29.77S
ALEXANDRIA     CLOUDY    50  46  86 NW13      29.90S
SAINT CLOUD    MOCLDY    52  48  86 W10       29.87R
MINNEAPOLIS    MOCLDY    56  44  64 W9        29.87F
$$

  *****  WEATHER ACROSS SOUTH DAKOTA  *****

CITY           SKY/WX    TMP DP  RH WIND       PRES   REMARKS
SIOUX FALLS    FAIR      50  44  80 SW5       29.99F
BROOKINGS      FAIR      48  43  82 W6        29.98F
WATERTOWN      CLOUDY    52  43  71 W6        29.96F
HURON          CLOUDY    47  39  74 W7        30.00S
SISSETON         N/A     54  43  66 NW9       29.93S
ABERDEEN       FAIR      51  38  60 NW5       29.98S
MITCHELL       MOCLDY    52  44  74 SW5       30.01F
PIERRE         FAIR      50  35  56 SW6       30.04R
MOBRIDGE       FAIR      45  35  68 NW7       30.00S
RAPID CITY     FAIR      47  29  49 NW9       30.12S
$$

  *****  SOME WEATHER IN NEARBY STATES *****

CITY           SKY/WX    TMP DP  RH WIND       PRES   REMARKS
GLASGOW MT     FAIR      50  27  40 NE12      30.10S
GREAT FALLS MT FAIR      60  45  57 E8        30.10F
CHEYENNE WY    FAIR      50  41  71 CALM      30.27S
SCOTTSBLUFF NE FAIR      51  37  58 N3        30.17S
OMAHA NE       FAIR      58  45  62 CALM      30.03S
DES MOINES IA  FAIR      60  43  53 NW7       30.00R
DAVENPORT IA   FAIR      59  45  59 W7        29.95R
CHICAGO IL     FAIR      60  46  59 CALM      29.89R
EAU CLAIRE WI  CLOUDY    51  47  86 SW5       29.83F
LA CROSSE WI   FAIR      57  49  74 W7        29.87S
$$

  *****  SOME NATIONAL WEATHER *****

CITY           SKY/WX    TMP DP  RH WIND       PRES   REMARKS
LA GUARDIA NY  CLOUDY    58  52  80 S6        30.12R
RALEIGH NC     CLOUDY    71  69  93 CALM      30.03F
ATLANTA GA     CLOUDY    71  68  90 W7        30.09S
NEW ORLEANS LA MOCLDY    73  71  93 SE3       30.07R
OKLAHOMA CITY  FAIR      69  52  54 SW5       30.07R
ALBUQUERQUE NM FAIR      64  40  41 E14       30.20R
SALT LAKE CITY FAIR      71  46  40 CALM      30.05R
LOS ANGELES CA CLOUDY    60  56  86 SW6       29.92R
BOISE ID       FAIR      71  42  35 SE8       29.97R
SEATTLE WA     FAIR      59  52  77 SW9       29.96R
$$

*** WEATHER ACROSS MANITOBA...SASKATCHEWAN AND ONTARIO ***
                ***ONTARIO***

CITY           SKY/WX    TMP DP  RH WIND       PRES   REMARKS
GERALDTON      PTCLDY    50  50 100 W7        29.53S
THUNDER BAY    CLOUDY    52  50  93 W10       29.62S
SIOUX LOOKOUT  LGT RAIN  46  45  93 NW9       29.68S FOG
TORONTO        LGT RAIN  59  54  82 SW9       29.88R
BIG TROUT LK   CLOUDY    39  37  93 NW7       29.60S
PICKLE LAKE    NOT AVBL
DRYDEN         CLOUDY    45  43  93 W10       29.72S FOG
KENORA         LGT RAIN  43  43 100 NW7       29.77F FOG
$$
                *** MANITOBA***

CITY           SKY/WX    TMP DP  RH WIND       PRES   REMARKS
BRANDON        LGT RAIN  46  41  81 NW12      29.98S
DAUPHIN        CLOUDY    46  41  81 N9        30.00R
ISLAND LAKE    NOT AVBL
PILOT MOUND      N/A     45  41  87 NW12        N/A
THE PAS        MOCLDY    46  41  81 NW8       30.03F
THOMPSON       PTCLDY    45  39  81 N7        29.94
WINNIPEG       CLOUDY    45  41  87 N14       29.90S
LYNN LAKE      CLEAR     46  37  71 W8        30.03S
CHURCHILL      MOCLDY    36  34  93 N15       29.90F
GILLAM         LGT RAIN  39  37  93 N17G26    29.82S FOG
$$
                ***SASKATCHEWAN***

CITY           SKY/WX    TMP DP  RH WIND       PRES   REMARKS
ESTEVAN        CLEAR     45  37  76 N8        30.05R
KINDERSLEY     PTCLDY    48  32  53 NE7       30.14S
LLOYDMINSTER   CLEAR     50  32  50 E6        30.17R
PRINCE ALBERT  CLEAR     43  32  65 N3        30.14S
REGINA         CLEAR     52  34  50 NE13      30.10R
YORKTON        CLOUDY    46  43  87 N9        30.06S
N. BATTLEFORD  CLEAR     50  30  46 NE9       30.17R
LA RONGE       PTCLDY    41  34  75 SW2       30.15S
SASKATOON      CLEAR     48  32  53 NE7       30.15R
SWIFT CURRENT  CLEAR     50  28  43 NE6       30.12S
$$
NOTE: THESE ARE AUTOMATED STATIONS WITH LIMITED QUALITY CONTROL
      "FAIR" INDICATES FEW OR NO CLOUDS BELOW 12,000 FEET WITH NO
      SIGNIFICANT WEATHER AND/OR OBSTRUCTIONS TO VISIBILITY.
      SKY/WX - SKY CONDITION AND SIGNIFICANT WEATHER.
      TMP - AIR TEMPERATURE.    DP   - DEWPOINT TEMPERATURE.
      RH  - RELATIVE HUMIDITY.  PRES - PRESSURE.
      HX  - HEAT INDEX.         WCI  - WIND CHILL INDEX.
$




USA.gov is the U.S. government's official web portal to all federal, state and local government web resources and services.